Location: Hains Lake
(37.8540°N, 99.8578°W)
Time: 21:41:28
(UTC+00:00)

ISS - Pass Details

Date: 13 March 2021
Orbit: 418 x 422 km, 51.6° (Epoch: 12 April)

Event Time Altitude Azimuth Distance (km) Brightness Sun altitude
Exits shadow 10:16:20 11° 91° (E) 1,443 -0.3 -31.1°
Drops below altitude 10° 10:16:28 10° 92° (E) 1,492 -0.2 -31.1°
Sets 10:18:45 0° 105° (ESE) 2,353 0.8 -30.7°
